When you browse on this site, cookies collect data to enhance your experience and personalize the content and advertising you see.
Visit our Privacy Policy to learn more. By continuing to use the site, you agree to this use of cookies and data.
  • In Spain
  • List of Countries
  • For 7 days
  • Water Temperature
  • Satellite Maps
  • Weather Map
  • Weather Widgets
  • user-avatar
    Login

    Hourly Weather Gavriki

    Today, 24 May, Friday

    Time Temperature Precipitation Wind Pressure Humidity
    00:00 +16°C° 0 mm 2 mps 740 mmHg 94%
    01:00 +15°C° 0 mm 2 mps 740 mmHg 95%
    02:00 +14°C° 0 mm 1 mps 740 mmHg 96%
    03:00 +15°C° 0.6 mm 2 mps 740 mmHg 97%
    04:00 +15°C° 0.6 mm 2 mps 741 mmHg 97%
    05:00 +14°C° 0.6 mm 3 mps 741 mmHg 97%
    06:00 +16°C° 0 mm 3 mps 741 mmHg 95%
    07:00 +16°C° 0 mm 3 mps 741 mmHg 93%
    08:00 +16°C° 0 mm 3 mps 741 mmHg 91%
    09:00 +16°C° 0.2 mm 3 mps 741 mmHg 90%
    10:00 +16°C° 0.2 mm 3 mps 741 mmHg 90%
    11:00 +16°C° 0.2 mm 3 mps 742 mmHg 89%
    12:00 +17°C° 0 mm 3 mps 741 mmHg 87%
    13:00 +17°C° 0 mm 3 mps 741 mmHg 85%
    14:00 +18°C° 0 mm 3 mps 741 mmHg 83%
    15:00 +18°C° 0.2 mm 3 mps 741 mmHg 82%
    16:00 +19°C° 0.2 mm 3 mps 741 mmHg 82%
    17:00 +19°C° 0.2 mm 3 mps 741 mmHg 81%
    18:00 +18°C° 0.3 mm 3 mps 741 mmHg 85%
    19:00 +17°C° 0.3 mm 3 mps 741 mmHg 90%
    20:00 +16°C° 0.3 mm 3 mps 741 mmHg 94%
    21:00 +16°C° 0.3 mm 3 mps 741 mmHg 95%
    22:00 +16°C° 0.3 mm 3 mps 741 mmHg 96%
    23:00 +14°C° 0.3 mm 3 mps 741 mmHg 97%

    Tomorrow, 25 May, Saturday

    Time Temperature Precipitation Wind Pressure Humidity
    00:00 +14°C° 0 mm 3 mps 740 mmHg 97%
    01:00 +14°C° 0 mm 3 mps 740 mmHg 97%
    02:00 +14°C° 0 mm 3 mps 740 mmHg 97%
    03:00 +14°C° 1.3 mm 3 mps 740 mmHg 97%
    04:00 +15°C° 1.3 mm 2 mps 739 mmHg 97%
    05:00 +15°C° 1.3 mm 2 mps 739 mmHg 97%
    06:00 +16°C° 1.3 mm 2 mps 739 mmHg 96%
    07:00 +16°C° 1.3 mm 2 mps 739 mmHg 96%
    08:00 +17°C° 1.3 mm 3 mps 739 mmHg 95%
    09:00 +17°C° 0.1 mm 2 mps 739 mmHg 92%
    10:00 +18°C° 0.1 mm 2 mps 739 mmHg 89%
    11:00 +19°C° 0.1 mm 2 mps 739 mmHg 87%
    12:00 +20°C° 0.5 mm 2 mps 738 mmHg 82%
    13:00 +21°C° 0.5 mm 2 mps 738 mmHg 78%
    14:00 +23°C° 0.5 mm 2 mps 738 mmHg 73%
    15:00 +21°C° 0.8 mm 2 mps 738 mmHg 76%
    16:00 +21°C° 0.8 mm 2 mps 738 mmHg 79%
    17:00 +21°C° 0.8 mm 2 mps 737 mmHg 82%
    18:00 +19°C° 0.6 mm 2 mps 737 mmHg 85%
    19:00 +18°C° 0.6 mm 2 mps 737 mmHg 87%
    20:00 +16°C° 0.6 mm 3 mps 737 mmHg 90%
    21:00 +15°C° 0 mm 2 mps 737 mmHg 91%
    22:00 +14°C° 0 mm 2 mps 738 mmHg 93%
    23:00 +14°C° 0 mm 2 mps 738 mmHg 94%

    Day after tomorrow, 26 May, Sunday

    Time Temperature Precipitation Wind Pressure Humidity
    00:00 +13°C° 0 mm 2 mps 738 mmHg 95%
    01:00 +12°C° 0 mm 2 mps 738 mmHg 95%
    02:00 +12°C° 0 mm 2 mps 738 mmHg 96%
    03:00 +12°C° 0 mm 2 mps 739 mmHg 96%
    04:00 +12°C° 0 mm 2 mps 739 mmHg 96%
    05:00 +10°C° 0 mm 2 mps 739 mmHg 96%
    06:00 +13°C° 0 mm 2 mps 739 mmHg 91%
    07:00 +14°C° 0 mm 2 mps 739 mmHg 86%
    08:00 +15°C° 0 mm 2 mps 739 mmHg 81%
    09:00 +16°C° 0 mm 2 mps 739 mmHg 75%
    10:00 +17°C° 0 mm 3 mps 739 mmHg 69%
    11:00 +18°C° 0 mm 3 mps 739 mmHg 62%
    12:00 +18°C° 0 mm 3 mps 739 mmHg 62%
    13:00 +19°C° 0 mm 3 mps 739 mmHg 62%
    14:00 +19°C° 0 mm 4 mps 739 mmHg 61%
    15:00 +19°C° 0 mm 4 mps 739 mmHg 62%
    16:00 +18°C° 0 mm 4 mps 739 mmHg 63%
    17:00 +18°C° 0 mm 4 mps 739 mmHg 64%
    18:00 +17°C° 0 mm 3 mps 739 mmHg 70%
    19:00 +14°C° 0 mm 3 mps 739 mmHg 75%
    20:00 +14°C° 0 mm 2 mps 738 mmHg 81%
    21:00 +13°C° 0 mm 3 mps 739 mmHg 83%
    22:00 +12°C° 0 mm 3 mps 739 mmHg 84%
    23:00 +12°C° 0 mm 3 mps 739 mmHg 86%

    27 May, Monday

    Time Temperature Precipitation Wind Pressure Humidity
    00:00 +12°C° 0 mm 3 mps 739 mmHg 88%
    01:00 +11°C° 0 mm 3 mps 739 mmHg 90%
    02:00 +11°C° 0 mm 3 mps 739 mmHg 91%
    03:00 +11°C° 0 mm 3 mps 740 mmHg 91%
    04:00 +10°C° 0 mm 3 mps 740 mmHg 91%
    05:00 +10°C° 0 mm 3 mps 740 mmHg 91%
    06:00 +11°C° 0 mm 4 mps 741 mmHg 84%
    07:00 +12°C° 0 mm 4 mps 741 mmHg 77%
    08:00 +13°C° 0 mm 5 mps 742 mmHg 70%
    09:00 +14°C° 0 mm 5 mps 742 mmHg 68%
    10:00 +15°C° 0 mm 5 mps 742 mmHg 66%
    11:00 +16°C° 0 mm 5 mps 742 mmHg 65%
    12:00 +16°C° 0.1 mm 5 mps 742 mmHg 66%
    13:00 +17°C° 0.1 mm 5 mps 742 mmHg 68%
    14:00 +18°C° 0.1 mm 4 mps 743 mmHg 69%
    15:00 +18°C° 0.1 mm 4 mps 743 mmHg 71%
    16:00 +18°C° 0.1 mm 3 mps 742 mmHg 74%
    17:00 +18°C° 0.1 mm 3 mps 742 mmHg 76%
    18:00 +17°C° 0 mm 3 mps 742 mmHg 80%
    19:00 +16°C° 0 mm 3 mps 742 mmHg 84%
    20:00 +16°C° 0 mm 3 mps 742 mmHg 88%
    21:00 +14°C° 0 mm 3 mps 742 mmHg 88%
    22:00 +14°C° 0 mm 3 mps 742 mmHg 87%
    23:00 +14°C° 0 mm 3 mps 742 mmHg 87%

    28 May, Tuesday

    Time Temperature Precipitation Wind Pressure Humidity
    00:00 +14°C° 0 mm 3 mps 742 mmHg 88%
    01:00 +13°C° 0 mm 3 mps 743 mmHg 88%
    02:00 +13°C° 0 mm 3 mps 743 mmHg 89%
    03:00 +13°C° 0 mm 3 mps 743 mmHg 89%
    04:00 +14°C° 0 mm 3 mps 743 mmHg 90%
    05:00 +14°C° 0 mm 3 mps 743 mmHg 90%
    06:00 +16°C° 0 mm 3 mps 743 mmHg 86%
    07:00 +18°C° 0 mm 3 mps 743 mmHg 83%
    08:00 +20°C° 0 mm 3 mps 744 mmHg 79%
    09:00 +21°C° 0.1 mm 3 mps 744 mmHg 75%
    10:00 +22°C° 0.1 mm 3 mps 744 mmHg 71%
    11:00 +24°C° 0.1 mm 3 mps 744 mmHg 68%
    12:00 +24°C° 0.4 mm 3 mps 744 mmHg 68%
    13:00 +25°C° 0.4 mm 4 mps 744 mmHg 68%
    14:00 +25°C° 0.4 mm 4 mps 743 mmHg 68%
    15:00 +24°C° 0.8 mm 3 mps 743 mmHg 76%
    16:00 +22°C° 0.8 mm 3 mps 743 mmHg 83%
    17:00 +20°C° 0.8 mm 2 mps 743 mmHg 90%
    18:00 +20°C° 0 mm 3 mps 743 mmHg 90%
    19:00 +20°C° 0 mm 3 mps 743 mmHg 90%
    20:00 +20°C° 0 mm 4 mps 743 mmHg 91%
    21:00 +20°C° 0 mm 4 mps 743 mmHg 89%
    22:00 +19°C° 0 mm 4 mps 743 mmHg 88%
    23:00 +19°C° 0 mm 5 mps 742 mmHg 86%

    29 May, Wednesday

    Time Temperature Precipitation Wind Pressure Humidity
    00:00 +19°C° 0 mm 4 mps 742 mmHg 88%
    01:00 +19°C° 0 mm 4 mps 742 mmHg 90%
    02:00 +18°C° 0 mm 4 mps 742 mmHg 93%
    03:00 +18°C° 0 mm 4 mps 742 mmHg 92%
    04:00 +18°C° 0 mm 4 mps 742 mmHg 91%
    05:00 +17°C° 0 mm 5 mps 742 mmHg 90%
    06:00 +19°C° 0 mm 5 mps 742 mmHg 84%
    07:00 +20°C° 0 mm 5 mps 742 mmHg 78%
    08:00 +22°C° 0 mm 6 mps 742 mmHg 72%
    09:00 +22°C° 0 mm 6 mps 742 mmHg 71%
    10:00 +23°C° 0 mm 6 mps 742 mmHg 69%
    11:00 +24°C° 0 mm 6 mps 741 mmHg 68%
    12:00 +24°C° 0.6 mm 6 mps 741 mmHg 71%
    13:00 +24°C° 0.6 mm 7 mps 741 mmHg 73%
    14:00 +24°C° 0.6 mm 7 mps 741 mmHg 76%
    15:00 +23°C° 1.9 mm 6 mps 741 mmHg 79%
    16:00 +22°C° 1.9 mm 6 mps 741 mmHg 82%
    17:00 +22°C° 1.9 mm 5 mps 741 mmHg 85%
    18:00 +21°C° 0.2 mm 5 mps 741 mmHg 88%
    19:00 +20°C° 0.2 mm 4 mps 741 mmHg 90%
    20:00 +19°C° 0.2 mm 3 mps 741 mmHg 92%
    21:00 +19°C° 0.3 mm 3 mps 741 mmHg 93%
    22:00 +18°C° 0.3 mm 3 mps 741 mmHg 94%
    23:00 +18°C° 0.3 mm 3 mps 741 mmHg 95%
    Show more